Time,TemperatureF,DewpointF,PressureIn,WindDirection,WindDirectionDegrees,WindSpeedMPH,WindSpeedGustMPH,Humidity,HourlyPrecipIn,Conditions,Clouds,dailyrainin,SoftwareType,DateUTC
2013-01-25 01:32:00,52.0,-99.9,-100.00,NE,45,2.0,3.0,-999,-99.99,,,-99.99,,2013-01-25 09:32:00,
2013-01-25 01:42:00,52.0,-99.9,-100.00,NE,45,2.0,3.0,-999,-99.99,,,-99.99,,2013-01-25 09:42:00,
2013-01-25 01:52:00,52.0,-99.9,-100.00,NE,45,2.0,3.0,-999,-99.99,,,-99.99,,2013-01-25 09:52:00,
2013-01-25 03:33:00,54.0,-99.9,-100.00,ENE,73,5.0,6.0,-999,-99.99,,,-99.99,,2013-01-25 11:33:00,
2013-01-25 03:42:00,54.0,-99.9,-100.00,ENE,73,5.0,6.0,-999,-99.99,,,-99.99,,2013-01-25 11:42:00,
2013-01-25 03:52:00,54.0,-99.9,-100.00,ENE,73,5.0,6.0,-999,-99.99,,,-99.99,,2013-01-25 11:52:00,
2013-01-25 05:33:00,54.0,-99.9,-100.00,ENE,57,6.0,6.0,-999,-99.99,,,-99.99,,2013-01-25 13:33:00,
2013-01-25 07:33:00,53.0,-99.9,-100.00,NE,55,4.0,7.0,-999,-99.99,,,-99.99,,2013-01-25 15:33:00,
2013-01-25 07:43:00,53.0,-99.9,-100.00,NE,55,4.0,7.0,-999,-99.99,,,-99.99,,2013-01-25 15:43:00,
2013-01-25 07:53:00,53.0,-99.9,-100.00,NE,55,4.0,7.0,-999,-99.99,,,-99.99,,2013-01-25 15:53:00,
2013-01-25 09:33:00,54.0,-99.9,-100.00,ENE,60,4.0,4.0,-999,-99.99,,,-99.99,,2013-01-25 17:33:00,
2013-01-25 09:43:00,54.0,-99.9,-100.00,ENE,60,4.0,4.0,-999,-99.99,,,-99.99,,2013-01-25 17:43:00,
2013-01-25 09:53:00,54.0,-99.9,-100.00,ENE,60,4.0,4.0,-999,-99.99,,,-99.99,,2013-01-25 17:53:00,
2013-01-25 11:33:00,54.0,-99.9,-100.00,NE,35,2.0,5.0,-999,-99.99,,,-99.99,,2013-01-25 19:33:00,
2013-01-25 11:43:00,54.0,-99.9,-100.00,NE,35,2.0,5.0,-999,-99.99,,,-99.99,,2013-01-25 19:43:00,
2013-01-25 11:54:00,54.0,-99.9,-100.00,NE,35,2.0,5.0,-999,-99.99,,,-99.99,,2013-01-25 19:54:00,
2013-01-25 13:33:00,56.0,-99.9,-100.00,NE,43,3.0,5.0,-999,-99.99,,,-99.99,,2013-01-25 21:33:00,
2013-01-25 13:43:00,56.0,-99.9,-100.00,NE,43,3.0,5.0,-999,-99.99,,,-99.99,,2013-01-25 21:43:00,
2013-01-25 13:52:00,56.0,-99.9,-100.00,NE,43,3.0,5.0,-999,-99.99,,,-99.99,,2013-01-25 21:52:00,
2013-01-25 15:32:00,57.0,-99.9,-100.00,ENE,71,2.0,5.0,-999,-99.99,,,-99.99,,2013-01-25 23:32:00,
2013-01-25 15:42:00,57.0,-99.9,-100.00,ENE,71,2.0,5.0,-999,-99.99,,,-99.99,,2013-01-25 23:42:00,
2013-01-25 15:53:00,57.0,-99.9,-100.00,ENE,71,2.0,5.0,-999,-99.99,,,-99.99,,2013-01-25 23:53:00,
2013-01-25 17:32:00,53.0,-99.9,-100.00,ENE,57,2.0,4.0,-999,-99.99,,,-99.99,,2013-01-26 01:32:00,
2013-01-25 17:42:00,53.0,-99.9,-100.00,ENE,57,2.0,4.0,-999,-99.99,,,-99.99,,2013-01-26 01:42:00,
2013-01-25 17:53:00,53.0,-99.9,-100.00,ENE,57,2.0,4.0,-999,-99.99,,,-99.99,,2013-01-26 01:53:00,
2013-01-25 19:32:00,52.0,-99.9,-100.00,North,3,2.0,2.0,-999,-99.99,,,-99.99,,2013-01-26 03:32:00,
2013-01-25 19:43:00,52.0,-99.9,-100.00,North,3,2.0,2.0,-999,-99.99,,,-99.99,,2013-01-26 03:43:00,
2013-01-25 19:52:00,52.0,-99.9,-100.00,North,3,2.0,2.0,-999,-99.99,,,-99.99,,2013-01-26 03:52:00,
2013-01-25 21:33:00,53.0,-99.9,-100.00,NNE,15,0.0,2.0,-999,-99.99,,,-99.99,,2013-01-26 05:33:00,
2013-01-25 21:42:00,53.0,-99.9,-100.00,NNE,15,0.0,2.0,-999,-99.99,,,-99.99,,2013-01-26 05:42:00,
2013-01-25 21:53:00,53.0,-99.9,-100.00,NNE,15,0.0,2.0,-999,-99.99,,,-99.99,,2013-01-26 05:53:00,
2013-01-25 23:33:00,53.0,-99.9,-100.00,SW,226,0.0,0.0,-999,-99.99,,,-99.99,,2013-01-26 07:33:00,
2013-01-25 23:42:00,53.0,-99.9,-100.00,SW,226,0.0,0.0,-999,-99.99,,,-99.99,,2013-01-26 07:42:00,
2013-01-25 23:52:00,53.0,-99.9,-100.00,SW,226,0.0,0.0,-999,-99.99,,,-99.99,,2013-01-26 07:52:00,